[[{"header":{"parameterUnit":"m.s-1","parameterCategory":1,"la1":30.2992,"la2":30.254,"lo1":-89.0895,"lo2":-89.0443,"dy":0.0025,"dx":0.0025,"nx":19,"ny":19,"refTime":"2026-03-24T03:00:00:Z","depth":0,"parameterNumber":2,"parameterNumberName":"U-component_of_WINDS"},"data":[0,0,0,-2.3902,-2.3903,-2.3939,-2.3939,-2.3997,-2.3997,0,0,0,0,0,0,0,0,0,0,0,-2.3898,-2.3899,-2.3902,-2.3903,-2.3939,-2.3939,-2.3996,-2.3997,0,0,0,0,0,0,0,0,0,0,0,-2.3898,-2.3898,-2.3899,-2.3904,-2.3939,-2.3939,-2.3996,-2.3965,0,0,0,0,0,0,0,0,0,0,-2.3929,-2.3931,-2.3898,-2.3899,-2.3904,-2.3939,-2.3939,-2.3964,-2.3967,-2.3985,0,-2.4002,0,-2.4001,-2.4002,-2.4002,0,0,0,-2.3899,-2.3928,-2.3932,-2.3899,-2.3904,-2.3939,-2.3922,-2.3966,-2.397,-2.399,-2.4003,-2.4004,-2.4001,-2.4002,-2.4003,-2.4118,-2.4119,0,0,-2.3897,-2.3908,-2.3929,-2.3935,-2.3929,-2.3921,-2.3923,-2.3968,-2.3983,-2.4003,-2.4006,-2.4002,-2.4003,-2.4003,-2.4118,-2.4119,0,0,0,-2.3894,-2.3907,-2.3909,-2.3932,-2.3938,-2.3922,-2.3924,-2.3981,-2.3981,-2.4006,-2.4003,-2.4003,-2.4004,-2.4117,-2.4118,-2.4165,0,0,0,-2.3893,-2.3905,-2.3909,-2.3916,-2.3937,-2.396,-2.3936,-2.3977,-2.3982,-2.4003,-2.4003,-2.4004,-2.4116,-2.4117,-2.4162,-2.4185,0,0,0,-2.3894,-2.3905,-2.3912,-2.3916,-2.3932,-2.3959,-2.3961,-2.3978,-2.3981,-2.4002,-2.4005,-2.4115,-2.4117,-2.4159,-2.4181,-2.4219,0,0,0,-2.3898,-2.3954,-2.3913,-2.3976,-2.3932,-2.3987,-2.396,-2.4002,-2.4026,-2.4003,-2.4116,-2.4118,-2.4158,-2.4178,-2.4216,-2.4252,-2.4268,0,0,-2.3975,-2.3964,-2.4,-2.3964,-2.403,-2.3981,-2.4054,-2.4066,-2.4058,-2.4099,-2.4102,-2.4163,-2.418,-2.4218,-2.4357,-2.437,0,0,0,-2.4028,-2.4054,-2.4069,-2.4092,-2.4102,-2.4113,-2.4112,-2.4117,-2.4151,-2.4081,-2.4187,-2.4197,-2.4219,-2.4235,-2.4246,-2.4264,-2.4126,-2.4126,-2.4126,-2.4154,-2.414,-2.4198,-2.419,-2.4213,-2.4212,-2.4229,-2.4235,-2.4216,-2.4241,-2.4253,-2.4338,-2.4358,-2.4367,-2.4385,-2.4271,-2.4272,-2.4272,-2.4272,-2.4266,-2.43,-2.4272,-2.4319,-2.4305,-2.4344,-2.4346,-2.4331,-2.4366,-2.4328,-2.4347,-2.4306,-2.4381,-2.4397,-2.4275,-2.4275,-2.4274,-2.4274,-2.4274,-2.4346,-2.436,-2.4364,-2.4396,-2.4422,-2.4412,-2.4447,-2.4433,-2.4421,-2.4439,-2.445,-2.4449,-2.4446,-2.4445,-2.4446,-2.4446,-2.4446,-2.4446,-2.4446,-2.4427,-2.443,-2.446,-2.4476,-2.4489,-2.4505,-2.4505,-2.4518,-2.4529,-2.4516,-2.4516,-2.4494,-2.4391,-2.4365,-2.4451,-2.445,-2.445,-2.4449,-2.4449,-2.4545,-2.4516,-2.4563,-2.4576,-2.4593,-2.462,-2.4603,-2.463,-2.4639,-2.4656,-2.4631,-2.4557,-2.4545,-2.4536,-2.4514,-2.4633,-2.4633,-2.4633,-2.4633,-2.4612,-2.4604,-2.4649,-2.4671,-2.4691,-2.4679,-2.4734,-2.4735,-2.4731,-2.4736,-2.4717,-2.4688,-2.4679,-2.4672,-2.466,-2.464,-2.4788,-2.4788,-2.4789,-2.4684,-2.4677,-2.4725,-2.4721,-2.4733,-2.4745,-2.4795,-2.4822,-2.4813,-2.4795,-2.474,-2.4733,-2.4685,-2.4671,-2.465,-2.4632,-2.4594,0,0]},{"header":{"parameterUnit":"m.s-1","parameterCategory":1,"la1":30.2992,"la2":30.254,"lo1":-89.0895,"lo2":-89.0443,"dy":0.0025,"dx":0.0025,"nx":19,"ny":19,"refTime":"2026-03-24T03:00:00:Z","depth":0,"parameterNumber":3,"parameterNumberName":"V-component_of_WINDS"},"data":[0,0,0,2.8149,2.8149,2.8153,2.8153,2.8161,2.8161,0,0,0,0,0,0,0,0,0,0,0,2.815,2.815,2.8149,2.8149,2.8153,2.8153,2.8161,2.8161,0,0,0,0,0,0,0,0,0,0,0,2.815,2.815,2.815,2.8149,2.8153,2.8153,2.8161,2.8157,0,0,0,0,0,0,0,0,0,0,2.8153,2.8155,2.815,2.815,2.8149,2.8153,2.8153,2.8157,2.8157,2.8161,0,2.8165,0,2.8163,2.8162,2.8162,0,0,0,2.8148,2.8155,2.8154,2.815,2.8149,2.8153,2.8151,2.8157,2.8158,2.8161,2.8165,2.8165,2.8163,2.8162,2.8162,2.8189,2.8189,0,0,2.8147,2.8151,2.8154,2.8155,2.8155,2.8151,2.8151,2.8157,2.8161,2.8165,2.8165,2.8163,2.8162,2.8162,2.8189,2.8189,0,0,0,2.8148,2.8151,2.815,2.8155,2.8155,2.8151,2.8151,2.8161,2.816,2.8165,2.8163,2.8162,2.8162,2.8188,2.8189,2.8203,0,0,0,2.8148,2.8152,2.815,2.8153,2.8155,2.8158,2.8154,2.816,2.816,2.8163,2.8162,2.8162,2.8188,2.8189,2.8202,2.8208,0,0,0,2.8149,2.8152,2.8153,2.8153,2.8155,2.8158,2.8157,2.816,2.8159,2.8162,2.8162,2.8188,2.8188,2.8201,2.8207,2.8216,0,0,0,2.8151,2.8165,2.8153,2.8168,2.8155,2.8167,2.8157,2.8165,2.817,2.8162,2.8188,2.8189,2.8201,2.8206,2.8216,2.8225,2.8229,0,0,2.8171,2.8167,2.8176,2.8166,2.818,2.8166,2.8182,2.8182,2.8178,2.8185,2.8186,2.8202,2.8207,2.8216,2.8253,2.8257,0,0,0,2.8183,2.8189,2.8192,2.8197,2.8197,2.8198,2.8195,2.8195,2.8201,2.8183,2.8208,2.8211,2.8216,2.822,2.8223,2.8228,2.8191,2.8191,2.8191,2.8216,2.8211,2.8225,2.8221,2.8226,2.8223,2.8226,2.8225,2.8219,2.8225,2.8227,2.825,2.8255,2.8257,2.8262,2.8232,2.8232,2.8232,2.8232,2.8243,2.8251,2.8243,2.8254,2.8249,2.8258,2.8256,2.8251,2.8258,2.8248,2.8252,2.8241,2.8261,2.8265,2.8233,2.8233,2.8233,2.8233,2.8233,2.8263,2.8266,2.8267,2.8274,2.8279,2.8275,2.8283,2.8278,2.8274,2.8278,2.828,2.828,2.8278,2.828,2.828,2.828,2.828,2.828,2.828,2.8283,2.8284,2.8291,2.8294,2.8297,2.83,2.8298,2.8301,2.8302,2.8298,2.8298,2.8291,2.8264,2.8257,2.8281,2.8281,2.8281,2.8281,2.8281,2.8312,2.8305,2.8316,2.8319,2.8323,2.8329,2.8324,2.833,2.8331,2.8335,2.8328,2.8309,2.8305,2.8302,2.8296,2.8329,2.8329,2.8329,2.8329,2.8328,2.8326,2.8337,2.8342,2.8347,2.8344,2.8357,2.8356,2.8354,2.8355,2.835,2.8342,2.834,2.8337,2.8334,2.8328,2.8368,2.8368,2.8368,2.8345,2.8344,2.8356,2.8355,2.8357,2.836,2.8372,2.8378,2.8375,2.837,2.8355,2.8354,2.8341,2.8337,2.833,2.8326,2.8315,0,0]}]]